Location: Aalen
(48.8330°N, 10.1000°E)
Time: 22:24:40
(UTC+02:00)

Transit 2A - Pass Details

Date: 06 August 2021
Orbit: 594 x 964 km, 66.7° (Epoch: 27 September)

Event Time Altitude Azimuth Distance (km) Brightness Sun altitude
Rises 06:05:19 0° 195° (SSW) 2,835 8.6 0.0°
Reaches altitude 10° 06:07:33 10° 189° (S) 1,957 7.8 0.3°
Maximum altitude 06:11:43 44° 117° (ESE) 878 6.8 0.9°
Drops below altitude 10° 06:16:12 10° 45° (NE) 2,114 9.8 1.6°
Sets 06:18:42 0° 40° (NE) 3,091 10.5 2.0°
